Regional Weather Roundup
Issued by NWS

Home | Current Version | Previous Version | Text Only | Print | Product List | Glossary On
Versions: 1 2 3 4 5 6 7 8 9 10 11 12 13 14 15 16 17 18 19 20 21 22 23 24 25 26 27 28 29 30 31 32 33 34 35 36 37 38 39 40 41 42 43 44 45 46 47 48 49 50
000
ASUS45 KSLC 020510
RWRUT

UTAH REGIONAL WEATHER ROUNDUP
NATIONAL WEATHER SERVICE SALT LAKE CITY UT
1100 PM MDT WED JUL 01 2015

UTZ001>011-023>025-020600-

NORTHERN UTAH

CITY           SKY/WX    TMP DP  RH WIND       PRES   REMARKS
HILL AFB       MOCLDY    80  49  34 E7        30.07R
LOGAN          CLEAR     76  46  34 CALM      30.04R
OGDEN          MOCLDY    79  54  41 S7        30.03R
PROVO AIRPORT  CLOUDY    79  54  41 S5        30.05R
SALT LAKE CITY CLOUDY    85  55  35 S3        30.01R
VERNAL         PTCLDY    72  48  42 CALM      30.08R
WENDOVER       MOCLDY    88  46  23 CALM      30.04R
WEST JORDAN    CLEAR     82  48  30 W8        30.07R

$$

UTZ012>022-026-027-020600-

SOUTHERN/CENTRAL UTAH

CITY           SKY/WX    TMP DP  RH WIND       PRES   REMARKS
BRYCE CANYON   CLOUDY    65  47  52 NE22G35   30.34F
CEDAR CITY     CLOUDY    80  47  31 SE6       30.14R
MILFORD        CLOUDY    81  43  26 CALM      30.06R
MOAB/CYNLANDS  PTCLDY    89  47  23 SE5       29.97R
PRICE          CLOUDY    77  46  33 NW7       30.14R
ST GEORGE      CLOUDY    91  52  25 S9        29.91S
KANAB          CLOUDY    75  63  64 N8        30.19R

$$

REGIONAL REPORTS     COLORADO/ARIZONA

CITY           SKY/WX    TMP DP  RH WIND       PRES   REMARKS
CRAIG, CO      PTCLDY    72  46  39 N6        30.16S
GRAND JUNCTION PTCLDY    79  49  34 S3        30.02R
RIFLE          PTCLDY    74  52  46 E12       30.11R
MONTROSE       CLOUDY    81  49  32 W3        30.12R
CORTEZ         PTCLDY    76  51  41 VRB7      30.12R
PAGE, AZ       CLOUDY    86  50  28 W16G30    30.05R
GRAND CANYON   LGT RAIN  62  59  90 CALM      30.29R
KINGMAN        MOCLDY    81  53  37 SW15      30.04R
FLAGSTAFF      CLOUDY    68  57  68 VRB3      30.31R

$$

REGIONAL REPORTS    NEVADA/IDAHO/WYOMING

CITY           SKY/WX    TMP DP  RH WIND       PRES   REMARKS
LAS VEGAS, NV  MOCLDY    98  52  21 S15       29.80R HX  95
ELY            CLOUDY    72  49  44 N10       30.27R
ELKO           PTCLDY    78  47  33 CALM      30.12R
POCATELLO, ID  CLEAR     84  43  23 SW15      30.01R
BURLEY         PTCLDY    74  55  51 SW9       29.99R
EVANSTON, WY   PTCLDY    72  40  31 N6        30.28R
ROCK SPRINGS   PTCLDY    71  41  33 N6        30.20R

$$



USA.gov is the U.S. government's official web portal to all federal, state and local government web resources and services.